Regional Weather Roundup
Issued by NWS

Home | Current Version | Previous Version | Graphics & Text | Print | Product List | Glossary On
Versions: 1 2 3 4 5 6 7 8 9 10 11 12 13 14 15 16 17 18 19 20 21 22 23 24 25 26 27 28 29 30 31 32 33 34 35 36 37 38 39 40 41 42 43 44 45 46 47 48 49 50
000
ASUS45 KCYS 291210
RWRWY

WYOMING REGIONAL WEATHER ROUNDUP
NATIONAL WEATHER SERVICE CHEYENNE WY
600 AM MDT SUN MAR 29 2015

NOTE:  "FAIR" INDICATES FEW OR NO CLOUDS BELOW 12,000 FEET
WITH NO SIGNIFICANT WEATHER AND/OR OBSTRUCTIONS TO VISIBILITY.

WYZ001-291300-
YELLOWSTONE NATIONAL PARK

CITY           SKY/WX    TMP DP  RH WIND       PRES   REMARKS
LK YELLOWSTONE   N/A     17  12  80 NW3       30.33S
6HR MIN TEMP:  17; 6HR MAX TEMP:  26;

W YELLOWSTONE  NOT AVBL

$$
WYZ002>013-054>058-071-098>099-291300-
NORTHERN WYOMING

CITY           SKY/WX    TMP DP  RH WIND       PRES   REMARKS
JACKSON        FAIR      27  19  74 NE3       30.32R
CODY           FAIR      41  16  36 W6        30.23S
GREYBULL       FAIR      41  21  44 E3        30.23S
6HR MIN TEMP:  39; 6HR MAX TEMP:  51;

WORLAND        FAIR      35  20  54 S12       30.25R WCI  27
6HR MIN TEMP:  34; 6HR MAX TEMP:  47;

SHERIDAN       MOCLDY    38  24  57 NW8       30.23R WCI  32
6HR MIN TEMP:  37; 6HR MAX TEMP:  50;

BUFFALO        FAIR      41  23  48 N10       30.23R
6HR MIN TEMP:  41; 6HR MAX TEMP:  49;

GILLETTE       FAIR      36  29  75 W14       30.21R WCI  27
6HR MIN TEMP:  34; 6HR MAX TEMP:  47;

HULETT         PTSUNNY   41  32  70 NW13G22   30.19R
NEWCASTLE      FAIR      39  30  70 NW23G35   30.17R WCI  29

$$
WYZ014>020-022>026-101>103-291300-
CENTRAL WYOMING

CITY           SKY/WX    TMP DP  RH WIND       PRES   REMARKS
BIG PINEY      FAIR      21  14  74 CALM      30.32R
6HR MIN TEMP:  20; 6HR MAX TEMP:  36;

PINEDALE       FAIR      25  19  80 CALM      30.32R
DUBOIS         FAIR      28  14  54 NW8       30.28S WCI  20
LANDER         FAIR      36  15  42 SE5       30.26R WCI  32
6HR MIN TEMP:  36; 6HR MAX TEMP:  55;

RIVERTON       FAIR      37  13  37 SW6       30.27R WCI  32
6HR MIN TEMP:  33; 6HR MAX TEMP:  49;

CASPER         FAIR      25  16  68 W5        30.28R WCI  19
6HR MIN TEMP:  24; 6HR MAX TEMP:  45;

DOUGLAS        FAIR      40  27  59 N16       30.26R WCI  31
6HR MIN TEMP:  39; 6HR MAX TEMP:  45;


$$
WYZ021-027>030-104>119-291300-
SOUTHERN WYOMING

CITY           SKY/WX    TMP DP  RH WIND       PRES   REMARKS
EVANSTON       FAIR      30  16  56 SE5       30.32R WCI  25
6HR MIN TEMP:  29; 6HR MAX TEMP:  42;

FORT BRIDGER   FAIR      35  15  44 CALM      30.37R
ROCK SPRINGS   FAIR      32  16  51 W6        30.31R WCI  26
6HR MIN TEMP:  30; 6HR MAX TEMP:  45;

DIXON          FAIR      27  19  73 E3        30.33R
RAWLINS        FAIR      24  12  60 NW3       30.31R
6HR MIN TEMP:  24; 6HR MAX TEMP:  49;

SARATOGA       FAIR      28  14  54 W7        30.32R WCI  21
LARAMIE        FAIR      30  13  49 NW10      30.26R WCI  21
6HR MIN TEMP:  28; 6HR MAX TEMP:  47;

CHEYENNE       FAIR      38  15  39 N25G38    30.21R WCI  27
6HR MIN TEMP:  38; 6HR MAX TEMP:  55;

TORRINGTON     FAIR      44  27  51 NW24G35   30.19R
6HR MIN TEMP:  44; 6HR MAX TEMP:  53;

PINE BLUFFS    FAIR      37  19  48 NW15G21   30.19R WCI  28

$$



USA.gov is the U.S. government's official web portal to all federal, state and local government web resources and services.